Location: Bédeille
(43.0872°N, 1.1041°E)
Time: 13:09:16
(UTC+00:00)

ATLAS 2AS CENTAUR R/B - Pass Details

Date: 03 February 2023
Orbit: 986 x 1226 km, 63.7° (Epoch: 31 January)

Event Time Altitude Azimuth Distance (km) Brightness Sun altitude
Rises 18:23:17 0° 323° (NW) 3,955 6.1 -13.6°
Reaches altitude 10° 18:26:02 10° 323° (NW) 2,958 5.4 -14.1°
Maximum altitude 18:33:01 84° 237° (WSW) 1,060 2.7 -15.4°
Drops below altitude 10° 18:39:35 10° 149° (SSE) 2,787 4.7 -16.6°
Sets 18:42:07 0° 149° (SSE) 3,714 5.3 -17.0°
